RESURS-P 4

Last updated on Sun Dec 14 2025 00:02:33 GMT+0000 (Coordinated Universal Time)

1 59371U 24061A 25347.29533692 .00006227 00000+0 20341-3 0 9997 2 59371 97.2540 293.6140 0001489 53.1385 306.9994 15.32093608 95298
UTC large
Height (km)
Speed (km/s)
/
Latitude / Longitude
Inclination (degrees)
Orbital Period (minutes)
Azimuth
Elevation
Range (km)
Doppler Factor

Next 0 passes for location: London (51.5072 / 0.1276)

Sorry there are no passes over London.